{"data":{"norad_id":54043,"epoch":"2026-05-24T18:35:28.476960Z","epoch_age_seconds":87705,"freshness":"FRESH","line1":"1 54043U 22133B   26144.77463515  .00011382  00000+0  35956-3 0  9997","line2":"2 54043  34.9955 259.6284 0004424 232.8245 127.2069 15.32001905201252","mean_motion":15.32001905,"eccentricity":0.0004424,"inclination_deg":34.9955,"raan_deg":259.6284,"arg_perigee_deg":232.8245,"mean_anomaly_deg":127.2069,"bstar":0.00035956,"rev_number":20125,"period_min":93.994661188101,"perigee_km":466.81063482254,"apogee_km":472.86972503134,"semimajor_km":6847.9771799269,"source":"CELESTRAK","updated_at":"2026-05-25T13:37:58.543205Z"}}